Location: Banff
(51.1667°N, 115.5667°W)
Time: 07:07:11
(UTC+00:00)

N. Korean satellite - Pass Details

Date: 27 November 2022
Orbit: 407 x 442 km, 97.3° (Epoch: 04 February)

Event Time Altitude Azimuth Distance (km) Brightness Sun altitude
Rises 12:40:25 0° 19° (NNE) 2,533 10.4 -24.0°
Reaches altitude 10° 12:42:35 10° 28° (NNE) 1,651 9.5 -23.7°
Maximum altitude 12:45:56 38° 98° (E) 738 8.0 -23.1°
Drops below altitude 10° 12:49:14 10° 168° (SSE) 1,630 9.4 -22.6°
Sets 12:51:22 0° 176° (S) 2,495 10.3 -22.3°
